ALICE

Satellite information

Favourite Embed

Satellite Type and Status

PAYLOADIN ORBIT

Key statistics

Satellite ALICE at a glance.

Uptime

4232

Days in orbit

Revolutions

≈ 15.0

Per day

Orbit

SSO

Sun Synchronous Orbit

Inclination

120.5

Latest

Satellite identification and parameters

Extended collection of information and parameters for ALICE.

Object identification

Identified? True

Debris? False

Object name: ALICE

International designator: 2013-072F

Object number (NORAD): 39467

Object ID (CCSDS): 39467

Country: UNITED STATES OF AMERICA (US)

Current information (Y/N): Y

RCS size: SMALL

Orbital parameters

Period: 95.969 minutes

Inclination: 120.4671 deg

SMA: 6943.524 km

Apoapsis: 695.183 km

Periapsis: 435.595 km

RAAN: 78.7653 deg

Eccentricy: 0.0186928

Argument of periapsis: 351.5599 deg

Mean anomaly: 8.2345 deg

Mean motion: 15.00489234 rev/day

Mean motion (dot): 0.00006298 rev/day2

B* drag term: 0.00036255 1/REarth

Two-line elements (TLE)

Creation date: July 8, 2025, 2:27 a.m.

Reference frame: TEME

Reference center: EARTH

Epoch: July 7, 2025, 10:23 p.m. UTC

TLE line 0: 0 ALICE

TLE line 1: 1 39467U 13072F 25188.93268841 .00006298 00000-0 36255-3 0 9996

TLE line 2: 2 39467 120.4671 78.7653 0186928 351.5599 8.2345 15.00489234 63455

Live tracking on map

Real-time ground track for satellite ALICE.

In-orbit conjunctions

There are no conjunctions computed for ALICE, at the moment. Check back to stay up to date, as we update our databases every day.

Go to all conjunctions

Associated space launch

Classified payload for the U.S. National Reconnaissance Office.

ALICE was lifted into orbit during the mission ‘Atlas V 501 | NROL-39 (USA-247)’, on board a Atlas V 501 space rocket.

The launch took place on Dec. 6, 2013, 7:14 a.m. from Space Launch Complex 3E.

For more information about the launch, click the button.

Launch to space Atlas V 501 | NROL-39 (USA-247)
Atlas V 501 | NROL-39 (USA-247)

Agency: N/A

Status: Launch Successful

Launch date: Dec. 6, 2013, 7:14 a.m. UTC

Rocket: Atlas V 501

Launch pad: Space Launch Complex 3E

Location: Vandenberg SFB, CA, USA

...

Latest news about this satellite

There are no fresh news available about this satellite. Check back as we update our databases every day.


Newsletter sign-up

Weekly statistics, charts and insights to help you stay on top of the space industry.